Regional Weather Roundup
Issued by NWS

Home | Current Version | Previous Version | Graphics & Text | Print | Product List | Glossary On
Versions: 1 2 3 4 5 6 7 8 9 10 11 12 13 14 15 16 17 18 19 20 21 22 23 24 25 26 27
000
ASUS45 KSLC 281310
RWRUT

UTAH REGIONAL WEATHER ROUNDUP
NATIONAL WEATHER SERVICE SALT LAKE CITY UT
700 AM MDT TUE MAR 28 2017

UTZ001>011-023>025-281400-

NORTHERN UTAH

CITY           SKY/WX    TMP DP  RH WIND       PRES   REMARKS
BRIGHAM CITY     N/A     40  31  70 N10G18    30.10R WCI  33
HILL AFB       CLOUDY    36  30  78 N10       30.08R WCI  29
LOGAN          CLOUDY    40  34  79 N10       30.11R WCI  33
OGDEN          MOCLDY    38  31  76 N13G18    30.08R WCI  30
SALT LAKE CITY PTCLDY    38  31  76 NW12      30.09R WCI  30
TOOELE VALLEY  CLOUDY    39  32  75 NW9       30.11R WCI  33
WENDOVER       CLEAR     39  22  50 NW24G35   30.12R WCI  28
HEBER CITY     CLOUDY    37  28  70 N12       30.03R WCI  30
WEST JORDAN    CLOUDY    40  38  91 NW15      30.09R WCI  32

$$

UTZ011>015-024>027-281400-

CENTRAL/NORTHEAST UTAH

CITY           SKY/WX    TMP DP  RH WIND       PRES   REMARKS
PROVO AIRPORT  PTCLDY    39  30  70 N16G26    30.06R WCI  30
MOAB/CANYONLAN CLOUDY    42  41  96 NW6       29.86R
DELTA          CLEAR     32  28  86 CALM      30.09R
PRICE          CLOUDY    40  29  64 NW13G21   29.91R WCI  32
RICHFIELD      CLOUDY    39  30  70 NE7       30.06R WCI  34
ROOSEVELT      CLOUDY    39  36  87 CALM      29.93R
VERNAL         CLOUDY    40  38  93 W3        29.91R

$$

UTZ013>016-019>022-027-281400-

SOUTHERN UTAH

CITY           SKY/WX    TMP DP  RH WIND       PRES   REMARKS
BRYCE CANYON   CLOUDY    28  23  81 W17G25    29.96R WCI  16
CEDAR CITY     PTCLDY    33  27  78 N12       30.05R WCI  24
MILFORD        PTCLDY    34  27  75 N14       30.08R WCI  25
ST GEORGE      MOSUNNY   46  31  55 SE10      29.97R
HANKSVILLE     CLOUDY    45  32  61 NW6       29.91R
KANAB          CLEAR     43  25  49 NW13      29.98R
BLANDING       CLOUDY    38  36  91 NW3       29.92S

$$

REGIONAL REPORTS     COLORADO/ARIZONA

CITY           SKY/WX    TMP DP  RH WIND       PRES   REMARKS
CRAIG, CO      LGT SNOW  33  31  92 SW6       29.90R FOG     WCI  28
GRAND JUNCTION CLOUDY    43  43 100 CALM      29.87R
RIFLE, CO      CLOUDY    42  39  89 CALM      29.87R
MONTROSE, CO   CLOUDY    39  38  96 CALM      29.88S
CORTEZ, CO     CLOUDY    38  36  92 CALM      29.84F
COLORADO CITY    N/A     41  28  60 NW14G26   29.98R
PAGE, AZ       CLOUDY    50  30  46 W7        29.86R
GRAND CANYON   PTCLDY    34  28  79 N6        29.90R WCI  29
KINGMAN, AZ    CLEAR     45  18  34 NW9       29.96R
FLAGSTAFF, AZ  CLOUDY    31  28  89 NW3       29.88R

$$

REGIONAL REPORTS    NEVADA/IDAHO/WYOMING

CITY           SKY/WX    TMP DP  RH WIND       PRES   REMARKS
LAS VEGAS, NV  PTCLDY    55  21  26 NW21G28   30.02R
ELY, NY        CLEAR     27  22  81 NW7       30.14S WCI  19
ELKO, NV       CLEAR     27  22  81 E3        30.22R
POCATELLO, ID  MOCLDY    34  31  88 SW13      30.18R WCI  25
BURLEY, ID     CLOUDY    35  27  72 W17       30.18R WCI  25
FORT BRIDGER,  CLOUDY    32  32 100 W12       30.04R WCI  23
EVANSTON, WY     N/A     31  27  85 N14       30.04R WCI  21
ROCK SPRINGS,  LGT SNOW  33  31  92 NW12      29.96R VSB 1   WCI  24
KEMMERER, WY     N/A     30  27  86 W9        30.02R WCI  22

$$




USA.gov is the U.S. government's official web portal to all federal, state and local government web resources and services.